This demonstration page uses our WeatherBlox Daily Observations layout. Learn more.

Left ArrowRight Arrow

38.20091, -84.87328

Hourly Observations for August 28, 2022

Temp ( °F °C ) Dew Point ( °F °C ) Humidity (%) Winds ( mph kmh ) Pressure ( in mb ) Visibility ( mi km ) Precip ( " mm )
12:53 am 00:53 Clear 73 22.8 67 19.4 81 81 ESE 5 7 29.98 1015 10 16 0.00 0.00
1:53 am 01:53 Clear 73 22.8 67 19.4 81 81 Calm 29.98 1015 10 16 0.00 0.00
2:53 am 02:53 Clear 70 21.1 66 18.9 87 87 E 3 6 29.96 1015 10 16 0.00 0.00
3:53 am 03:53 Clear 68 20 66 18.9 93 93 Calm 29.96 1015 9 14 0.00 0.00
4:53 am 04:53 Clear 67 19.4 65 18.3 93 93 Calm 29.97 1015 9 14 0.00 0.00
5:53 am 05:53 Clear 67 19.4 66 18.9 97 97 E 3 6 29.97 1015 7 11 0.00 0.00
6:53 am 06:53 Clear with Mist and Fog 66 18.9 64 17.8 93 93 Calm 29.98 1015 6 10 0.00 0.00
7:53 am 07:53 Sunny 69 20.6 66 18.9 90 90 Calm 30.00 1016 8 13 0.00 0.00
8:53 am 08:53 Sunny 74 23.3 69 20.6 85 85 VRB 3 6 30.01 1016 10 16 0.00 0.00
9:53 am 09:53 Sunny 79 26.1 70 21.1 74 74 SSE 6 9 30.01 1016 10 16 0.00 0.00
10:53 am 10:53 Sunny 83 28.3 72 22.2 70 70 VRB 5 7 30.01 1016 10 16 0.00 0.00
11:53 am 11:53 Sunny 86 30 72 22.2 63 63 SW 5 7 30.01 1016 10 16 0.00 0.00
12:53 pm 12:53 Sunny 88 31.1 72 22.2 59 59 SW 3 6 30.00 1016 10 16 0.00 0.00
1:53 pm 13:53 Partly Cloudy 88 31.1 70 21.1 55 55 WSW 5 7 29.98 1015 10 16 0.00 0.00
2:53 pm 14:53 Partly Cloudy 90 32.2 71 21.7 54 54 SSE 6 9 29.96 1015 10 16 0.00 0.00
3:53 pm 15:53 Partly Cloudy 91 32.8 71 21.7 52 52 S 8 13 29.94 1014 10 16 0.00 0.00
4:53 pm 16:53 Mostly Cloudy 93 33.9 70 21.1 47 47 SSE 9 15 29.92 1013 10 16 0.00 0.00
5:53 pm 17:53 Sunny 90 32.2 69 20.6 50 50 SSW 8 13 29.91 1013 10 16 0.00 0.00
6:53 pm 18:53 Sunny 90 32.2 68 20 49 49 S 9 15 29.90 1013 10 16 0.00 0.00
7:53 pm 19:53 Sunny 86 30 69 20.6 57 57 S 3 6 29.92 1013 10 16 0.00 0.00
8:53 pm 20:53 Clear 79 26.1 71 21.7 77 77 Calm 29.94 1014 10 16 0.00 0.00
9:53 pm 21:53 Clear 81 27.2 70 21.1 69 69 SSE 6 9 29.94 1014 10 16 0.00 0.00
10:53 pm 22:53 Clear 81 27.2 70 21.1 69 69 S 6 9 29.96 1015 10 16 0.00 0.00
11:53 pm 23:53 Clear 79 26.1 69 20.6 72 72 SSE 6 9 29.96 1015 10 16 0.00 0.00

Powered by AerisWeather